Time,TemperatureF,DewpointF,PressureIn,WindDirection,WindDirectionDegrees,WindSpeedMPH,WindSpeedGustMPH,Humidity,HourlyPrecipIn,Conditions,Clouds,dailyrainin,SoftwareType,DateUTC
2013-02-27 00:11:00,27.5,24.7,29.73,WNW,292,12.5,-999.0,89,-99.99,,,0.00,Acu-Link.com,2013-02-27 06:11:00,
2013-02-27 00:26:00,27.1,24.3,29.72,NW,315,17.1,-999.0,89,-99.99,,,0.00,Acu-Link.com,2013-02-27 06:26:00,
2013-02-27 00:41:00,27.0,24.2,29.73,WNW,292,9.9,-999.0,89,-99.99,,,0.00,Acu-Link.com,2013-02-27 06:41:00,
2013-02-27 00:56:00,27.0,24.2,29.73,WNW,292,12.5,-999.0,89,-99.99,,,0.00,Acu-Link.com,2013-02-27 06:56:00,
2013-02-27 01:11:00,27.0,24.2,29.73,NW,315,9.4,-999.0,89,-99.99,,,0.00,Acu-Link.com,2013-02-27 07:11:00,
2013-02-27 01:26:00,26.8,23.7,29.73,NW,315,9.4,-999.0,88,-99.99,,,0.00,Acu-Link.com,2013-02-27 07:26:00,
2013-02-27 01:41:00,26.8,23.7,29.74,NW,315,11.4,-999.0,88,-99.99,,,0.00,Acu-Link.com,2013-02-27 07:41:00,
2013-02-27 01:56:00,26.6,23.5,29.73,WNW,292,16.6,-999.0,88,-99.99,,,0.00,Acu-Link.com,2013-02-27 07:56:00,
2013-02-27 02:11:00,26.6,23.5,29.73,WNW,292,10.9,-999.0,88,-99.99,,,0.00,Acu-Link.com,2013-02-27 08:11:00,
2013-02-27 02:26:00,26.6,23.5,29.72,NW,315,12.5,-999.0,88,-99.99,,,0.00,Acu-Link.com,2013-02-27 08:26:00,
2013-02-27 02:41:00,26.6,23.3,29.72,WNW,292,9.4,-999.0,87,-99.99,,,0.00,Acu-Link.com,2013-02-27 08:41:00,
2013-02-27 02:57:00,26.6,23.3,29.71,NW,315,13.5,-999.0,87,-99.99,,,0.00,Acu-Link.com,2013-02-27 08:57:00,
2013-02-27 03:18:00,26.6,23.5,29.72,NW,315,13.5,-999.0,88,-99.99,,,0.00,Acu-Link.com,2013-02-27 09:18:00,
2013-02-27 03:33:00,26.2,23.1,29.72,NNW,337,11.9,-999.0,88,-99.99,,,0.00,Acu-Link.com,2013-02-27 09:33:00,
2013-02-27 03:48:00,26.1,23.0,29.72,NW,315,17.6,-999.0,88,-99.99,,,0.00,Acu-Link.com,2013-02-27 09:48:00,
2013-02-27 04:03:00,25.9,22.8,29.71,West,270,20.7,-999.0,88,-99.99,,,0.00,Acu-Link.com,2013-02-27 10:03:00,
2013-02-27 04:18:00,25.7,22.6,29.71,WNW,292,9.9,-999.0,88,-99.99,,,0.02,Acu-Link.com,2013-02-27 10:18:00,
2013-02-27 04:33:00,25.5,22.5,29.73,WNW,292,13.0,-999.0,88,-99.99,,,0.02,Acu-Link.com,2013-02-27 10:33:00,
2013-02-27 04:48:00,25.5,22.5,29.73,NW,315,13.5,-999.0,88,-99.99,,,0.02,Acu-Link.com,2013-02-27 10:48:00,
2013-02-27 05:03:00,25.5,22.5,29.73,NNW,337,16.6,-999.0,88,-99.99,,,0.02,Acu-Link.com,2013-02-27 11:03:00,
2013-02-27 05:18:00,25.5,22.5,29.73,WNW,292,16.6,-999.0,88,-99.99,,,0.02,Acu-Link.com,2013-02-27 11:18:00,
2013-02-27 05:33:00,25.5,22.5,29.74,NW,315,15.0,-999.0,88,-99.99,,,0.02,Acu-Link.com,2013-02-27 11:33:00,
2013-02-27 05:49:00,25.5,22.5,29.75,NW,315,16.6,-999.0,88,-99.99,,,0.02,Acu-Link.com,2013-02-27 11:49:00,
2013-02-27 06:04:00,25.5,22.5,29.74,WNW,292,14.5,-999.0,88,-99.99,,,0.02,Acu-Link.com,2013-02-27 12:04:00,
2013-02-27 06:20:00,25.5,22.5,29.75,NNW,337,14.0,-999.0,88,-99.99,,,0.02,Acu-Link.com,2013-02-27 12:20:00,
2013-02-27 06:35:00,25.5,22.2,29.75,NNW,337,16.6,-999.0,87,-99.99,,,0.02,Acu-Link.com,2013-02-27 12:35:00,
2013-02-27 06:50:00,25.5,22.2,29.76,NW,315,9.4,-999.0,87,-99.99,,,0.02,Acu-Link.com,2013-02-27 12:50:00,
2013-02-27 07:05:00,25.5,21.9,29.76,NW,315,9.4,-999.0,86,-99.99,,,0.02,Acu-Link.com,2013-02-27 13:05:00,
2013-02-27 07:20:00,25.5,21.9,29.76,NNW,337,15.5,-999.0,86,-99.99,,,0.02,Acu-Link.com,2013-02-27 13:20:00,
2013-02-27 07:37:00,25.5,21.9,29.78,NW,315,16.6,-999.0,86,-99.99,,,0.02,Acu-Link.com,2013-02-27 13:37:00,
2013-02-27 07:55:00,25.3,21.7,29.78,NW,315,18.6,-999.0,86,-99.99,,,0.02,Acu-Link.com,2013-02-27 13:55:00,
2013-02-27 09:27:00,26.2,21.2,29.80,NW,315,17.6,-999.0,81,-99.99,,,0.02,Acu-Link.com,2013-02-27 15:27:00,
2013-02-27 09:43:00,27.5,21.9,29.80,West,270,13.5,-999.0,79,-99.99,,,0.02,Acu-Link.com,2013-02-27 15:43:00,
2013-02-27 10:03:00,28.0,22.6,29.80,WNW,292,14.0,-999.0,80,-99.99,,,0.02,Acu-Link.com,2013-02-27 16:03:00,
2013-02-27 10:28:00,28.8,22.5,29.80,WNW,292,10.9,-999.0,77,-99.99,,,0.02,Acu-Link.com,2013-02-27 16:28:00,
2013-02-27 10:57:00,32.4,24.4,29.80,NW,315,17.6,-999.0,72,-99.99,,,0.02,Acu-Link.com,2013-02-27 16:57:00,
2013-02-27 13:03:00,36.9,27.3,29.80,NW,315,20.2,-999.0,68,-99.99,,,0.18,Acu-Link.com,2013-02-27 19:03:00,
2013-02-27 13:33:00,36.9,27.3,29.80,NW,315,21.7,-999.0,68,-99.99,,,0.32,Acu-Link.com,2013-02-27 19:33:00,
2013-02-27 15:45:00,37.9,26.8,29.83,NNW,337,17.6,-999.0,64,-99.99,,,0.32,Acu-Link.com,2013-02-27 21:45:00,
2013-02-27 16:02:00,37.8,26.0,29.83,WNW,292,20.7,-999.0,62,-99.99,,,0.71,Acu-Link.com,2013-02-27 22:02:00,
2013-02-27 16:24:00,37.8,26.0,29.83,WNW,292,19.7,-999.0,62,-99.99,,,0.72,Acu-Link.com,2013-02-27 22:24:00,
2013-02-27 16:40:00,37.9,25.7,29.84,NW,315,20.7,-999.0,61,-99.99,,,0.77,Acu-Link.com,2013-02-27 22:40:00,
2013-02-27 16:55:00,38.8,27.3,29.85,WNW,292,23.8,-999.0,63,-99.99,,,0.83,Acu-Link.com,2013-02-27 22:55:00,
2013-02-27 17:11:00,37.9,27.6,29.85,NW,315,17.6,-999.0,66,-99.99,,,0.85,Acu-Link.com,2013-02-27 23:11:00,
2013-02-27 17:26:00,37.8,27.1,29.86,WNW,292,16.6,-999.0,65,-99.99,,,0.85,Acu-Link.com,2013-02-27 23:26:00,
2013-02-27 17:41:00,36.9,27.3,29.86,NW,315,13.5,-999.0,68,-99.99,,,0.85,Acu-Link.com,2013-02-27 23:41:00,
2013-02-27 17:56:00,35.4,26.9,29.86,NW,315,8.9,-999.0,71,-99.99,,,0.85,Acu-Link.com,2013-02-27 23:56:00,
2013-02-27 18:11:00,35.4,26.6,29.86,NW,315,19.1,-999.0,70,-99.99,,,0.85,Acu-Link.com,2013-02-28 00:11:00,
2013-02-27 18:26:00,34.7,27.3,29.87,WNW,292,9.9,-999.0,74,-99.99,,,0.85,Acu-Link.com,2013-02-28 00:26:00,
2013-02-27 18:41:00,34.5,27.1,29.87,NW,315,13.5,-999.0,74,-99.99,,,0.85,Acu-Link.com,2013-02-28 00:41:00,
2013-02-27 18:57:00,34.5,27.4,29.88,West,270,16.6,-999.0,75,-99.99,,,0.85,Acu-Link.com,2013-02-28 00:57:00,
2013-02-27 19:12:00,33.8,27.4,29.88,West,270,15.0,-999.0,77,-99.99,,,0.85,Acu-Link.com,2013-02-28 01:12:00,
2013-02-27 19:27:00,33.6,27.5,29.88,NW,315,17.1,-999.0,78,-99.99,,,0.85,Acu-Link.com,2013-02-28 01:27:00,
2013-02-27 19:42:00,33.1,27.3,29.89,NW,315,15.0,-999.0,79,-99.99,,,0.85,Acu-Link.com,2013-02-28 01:42:00,
2013-02-27 19:57:00,33.1,27.3,29.89,WNW,292,11.9,-999.0,79,-99.99,,,0.85,Acu-Link.com,2013-02-28 01:57:00,
2013-02-27 20:12:00,32.7,27.2,29.90,WNW,292,13.5,-999.0,80,-99.99,,,0.85,Acu-Link.com,2013-02-28 02:12:00,
2013-02-27 20:28:00,32.5,27.0,29.90,WNW,292,15.5,-999.0,80,-99.99,,,0.85,Acu-Link.com,2013-02-28 02:28:00,
2013-02-27 20:44:00,32.4,26.9,29.90,NW,315,14.0,-999.0,80,-99.99,,,0.85,Acu-Link.com,2013-02-28 02:44:00,
2013-02-27 20:59:00,32.2,26.7,29.90,NW,315,18.6,-999.0,80,-99.99,,,0.85,Acu-Link.com,2013-02-28 02:59:00,
2013-02-27 21:15:00,31.8,26.3,29.90,NW,315,13.0,-999.0,80,-99.99,,,0.85,Acu-Link.com,2013-02-28 03:15:00,
2013-02-27 21:30:00,32.0,26.5,29.91,NNW,337,17.1,-999.0,80,-99.99,,,0.85,Acu-Link.com,2013-02-28 03:30:00,
2013-02-27 21:48:00,32.2,26.7,29.91,NW,315,11.9,-999.0,80,-99.99,,,0.85,Acu-Link.com,2013-02-28 03:48:00,
2013-02-27 22:04:00,32.0,26.5,29.91,WNW,292,13.5,-999.0,80,-99.99,,,0.85,Acu-Link.com,2013-02-28 04:04:00,
2013-02-27 22:24:00,31.5,26.4,29.91,WNW,292,13.0,-999.0,81,-99.99,,,0.85,Acu-Link.com,2013-02-28 04:24:00,
2013-02-27 22:46:00,31.8,26.6,29.91,NW,315,16.1,-999.0,81,-99.99,,,0.85,Acu-Link.com,2013-02-28 04:46:00,
2013-02-27 23:01:00,32.2,26.7,29.92,NNW,337,13.5,-999.0,80,-99.99,,,0.85,Acu-Link.com,2013-02-28 05:01:00,
2013-02-27 23:18:00,32.0,26.5,29.92,WNW,292,16.6,-999.0,80,-99.99,,,0.85,Acu-Link.com,2013-02-28 05:18:00,
2013-02-27 23:36:00,32.0,26.5,29.92,NW,315,12.5,-999.0,80,-99.99,,,0.85,Acu-Link.com,2013-02-28 05:36:00,